TimeCST,TemperatureF,Dew PointF,Humidity,Sea Level PressureIn,VisibilityMPH,Wind Direction,Wind SpeedMPH,Gust SpeedMPH,PrecipitationIn,Events,Conditions,WindDirDegrees,DateUTC
12:06 AM,26.6,24.8,93,29.96,2.5,NE,6.9,-,0.00,Snow,Light Snow,50,2013-03-05 06:06:00
12:14 AM,26.6,24.8,93,29.96,5.0,NE,8.1,-,0.00,Snow,Light Snow,40,2013-03-05 06:14:00
1:53 AM,26.6,24.8,93,29.93,7.0,NE,10.4,-,N/A,,Overcast,50,2013-03-05 07:53:00
2:07 AM,26.6,24.8,93,29.92,8.0,ENE,10.4,-,N/A,,Overcast,60,2013-03-05 08:07:00
2:53 AM,26.1,24.1,92,29.95,3.0,NE,10.4,-,0.00,Snow,Light Snow,50,2013-03-05 08:53:00
3:53 AM,26.1,24.1,92,29.93,4.0,NE,10.4,-,0.00,,Overcast,40,2013-03-05 09:53:00
4:15 AM,26.6,24.8,93,29.89,2.5,NE,8.1,-,0.00,Snow,Light Snow,40,2013-03-05 10:15:00
4:18 AM,26.6,24.8,93,29.89,2.5,NNE,8.1,-,0.00,Snow,Light Snow,30,2013-03-05 10:18:00
4:29 AM,26.6,24.8,93,29.89,1.2,NNE,6.9,-,0.00,Snow,Light Snow,30,2013-03-05 10:29:00
4:53 AM,26.1,25.0,96,29.93,1.0,NNE,8.1,-,0.01,Snow,Light Snow,30,2013-03-05 10:53:00
4:57 AM,26.6,24.8,93,29.89,0.8,NNE,8.1,-,0.00,Snow,Light Snow,30,2013-03-05 10:57:00
5:06 AM,26.6,24.8,93,29.89,1.0,NNE,6.9,-,0.01,Snow,Light Snow,30,2013-03-05 11:06:00
5:12 AM,26.6,24.8,93,29.89,0.8,NNE,6.9,-,0.02,Snow,Light Snow,30,2013-03-05 11:12:00
5:43 AM,26.6,26.6,100,29.89,0.8,NNE,5.8,-,0.05,Snow,Light Snow,20,2013-03-05 11:43:00
5:53 AM,26.1,26.1,100,29.94,0.8,NNE,5.8,-,0.06,Snow,Light Snow,20,2013-03-05 11:53:00
6:31 AM,26.6,26.6,100,29.89,0.8,NNE,6.9,-,0.05,Snow,Light Snow,30,2013-03-05 12:31:00
6:49 AM,26.6,26.6,100,29.90,0.5,NNE,6.9,-,0.06,Fog-Snow,Snow,20,2013-03-05 12:49:00
6:53 AM,26.1,26.1,100,29.94,0.5,NNE,6.9,-,0.06,Fog-Snow,Snow,20,2013-03-05 12:53:00
7:53 AM,27.0,26.1,96,29.94,0.8,North,5.8,-,0.05,Snow,Light Snow,10,2013-03-05 13:53:00
8:18 AM,26.6,26.6,100,29.90,0.8,North,6.9,-,0.02,Snow,Light Snow,360,2013-03-05 14:18:00
8:49 AM,26.6,26.6,100,29.89,0.5,North,6.9,-,0.04,Fog-Snow,Snow,360,2013-03-05 14:49:00
8:53 AM,27.0,26.1,96,29.93,0.5,North,8.1,-,0.05,Fog-Snow,Snow,10,2013-03-05 14:53:00
9:53 AM,28.0,26.1,92,29.92,0.8,North,8.1,-,0.05,Snow,Light Snow,10,2013-03-05 15:53:00
10:45 AM,28.4,26.6,93,29.87,1.0,NNE,9.2,-,0.03,Snow,Light Snow,20,2013-03-05 16:45:00
10:53 AM,28.9,27.0,92,29.91,0.8,North,8.1,-,0.03,Snow,Light Snow,10,2013-03-05 16:53:00
11:53 AM,28.9,27.0,92,29.91,0.8,NNW,11.5,-,0.02,Snow,Light Snow,340,2013-03-05 17:53:00
12:53 PM,28.9,27.0,92,29.91,0.5,North,10.4,-,0.04,Fog-Snow,Snow,350,2013-03-05 18:53:00
1:53 PM,28.0,27.0,96,29.92,0.8,North,12.7,-,0.02,Snow,Light Snow,350,2013-03-05 19:53:00
1:56 PM,28.4,26.6,93,29.87,0.8,North,16.1,-,0.00,Snow,Light Snow,350,2013-03-05 19:56:00
2:53 PM,28.0,26.1,92,29.94,0.5,North,15.0,-,0.02,Fog-Snow,Light Snow,350,2013-03-05 20:53:00
3:53 PM,28.0,26.1,92,29.96,0.8,North,17.3,-,0.01,Snow,Light Snow,350,2013-03-05 21:53:00
4:00 PM,28.4,26.6,93,29.91,0.5,North,16.1,-,0.00,Fog-Snow,Light Snow,360,2013-03-05 22:00:00
4:40 PM,28.4,26.6,93,29.94,1.0,North,15.0,-,0.01,Snow,Light Snow,360,2013-03-05 22:40:00
4:53 PM,28.0,26.1,92,29.99,0.8,North,17.3,21.9,0.01,Snow,Light Snow,350,2013-03-05 22:53:00
5:07 PM,28.4,26.6,93,29.95,1.0,North,16.1,-,0.00,Snow,Light Snow,360,2013-03-05 23:07:00
5:42 PM,26.6,26.6,100,29.97,2.0,North,17.3,-,0.00,,Overcast,350,2013-03-05 23:42:00
5:50 PM,26.6,26.6,100,29.98,2.5,North,17.3,-,0.00,Rain,Light Freezing Rain,360,2013-03-05 23:50:00
5:53 PM,27.0,26.1,96,30.02,2.5,North,13.8,-,0.00,Rain,Light Freezing Rain,360,2013-03-05 23:53:00
6:04 PM,26.6,26.6,100,29.98,3.0,North,16.1,-,0.00,Snow,Light Snow,360,2013-03-06 00:04:00
6:33 PM,26.6,24.8,93,30.00,3.0,North,12.7,-,0.00,,Overcast,360,2013-03-06 00:33:00
6:53 PM,27.0,25.0,92,30.06,4.0,North,12.7,-,0.00,,Overcast,360,2013-03-06 00:53:00
7:05 PM,26.6,24.8,93,30.02,4.0,North,15.0,-,N/A,,Overcast,350,2013-03-06 01:05:00
7:46 PM,26.6,24.8,93,30.04,4.0,North,13.8,-,0.00,,Overcast,350,2013-03-06 01:46:00
7:53 PM,26.1,24.1,92,30.09,4.0,North,17.3,-,0.00,,Overcast,350,2013-03-06 01:53:00
8:17 PM,24.8,23.0,93,30.05,6.0,North,16.1,-,N/A,,Overcast,350,2013-03-06 02:17:00
8:53 PM,25.0,23.0,92,30.12,9.0,NNW,13.8,-,N/A,,Overcast,340,2013-03-06 02:53:00
9:53 PM,25.0,23.0,92,30.14,10.0,North,12.7,-,N/A,,Overcast,350,2013-03-06 03:53:00
10:53 PM,25.0,21.9,88,30.16,10.0,NNW,15.0,-,N/A,,Overcast,340,2013-03-06 04:53:00
11:08 PM,24.8,21.2,86,30.12,10.0,NNW,12.7,-,N/A,,Overcast,340,2013-03-06 05:08:00
11:53 PM,25.0,21.9,88,30.18,10.0,NNW,17.3,-,N/A,,Overcast,330,2013-03-06 05:53:00